METEOR 2-8 DEB

Satellite information

Favourite Embed

Satellite Type and Status

DEBRISIN ORBIT

Key statistics

Satellite METEOR 2-8 DEB at a glance.

Uptime

15969

Days in orbit

Revolutions

≈ 14.3

Per day

Orbit

LEO

Low Earth Orbit

Inclination

82.5

Latest

Satellite identification and parameters

Extended collection of information and parameters for METEOR 2-8 DEB.

Object identification

Identified? True

Debris? True

Object name: METEOR 2-8 DEB

International designator: 1982-025AG

Object number (NORAD): 36346

Object ID (CCSDS): 36346

Country: COMMONWEALTH OF INDEPENDENT STATES (CIS)

Current information (Y/N): Y

RCS size: SMALL

Orbital parameters

Period: 100.482 minutes

Inclination: 82.5346 deg

SMA: 7159.573 km

Apoapsis: 787.135 km

Periapsis: 775.74 km

RAAN: 341.6277 deg

Eccentricy: 0.00079579

Argument of periapsis: 108.3377 deg

Mean anomaly: 251.8677 deg

Mean motion: 14.3308553 rev/day

Mean motion (dot): 0.00012961 rev/day2

B* drag term: 0.0047161571 1/REarth

Two-line elements (TLE)

Creation date: Dec. 11, 2025, 3:54 a.m.

Reference frame: TEME

Reference center: EARTH

Epoch: Dec. 10, 2025, 5:57 p.m. UTC

TLE line 0: 0 METEOR 2-8 DEB

TLE line 1: 1 36346U 82025AG 25344.74803085 .00012961 00000-0 47162-2 0 9993

TLE line 2: 2 36346 82.5346 341.6277 0007958 108.3377 251.8677 14.33085530294766

Live tracking on map

Real-time ground track for satellite METEOR 2-8 DEB.

In-orbit conjunctions

A list of the most updated potential collisions computed for object METEOR 2-8 DEB.

Target Orbit TCA Probability of collision Miss distance Type
CZ-6A DEB LEO 2024-11-08 23:14:22 0.0001326884 930.0 (m) DEBRIS
PSLV R/B SSO 2024-08-15 13:22:01 0.0005628695 113.0 (m) ROCKET BODY
NOAA 16 DEB SSO 2024-07-07 19:14:16 0.0001412222 76.0 (m) DEBRIS

Associated space launch

Second generation soviet meteorological satellite

METEOR 2-8 DEB was lifted into orbit during the mission ‘Tsiklon-3 | Meteor-2 8’, on board a Tsiklon-3 space rocket.

The launch took place on March 25, 1982, 9:50 a.m. from 32/1.

For more information about the launch, click the button.

Launch to space Tsiklon-3 | Meteor-2 8
Tsiklon-3 | Meteor-2 8

Agency: N/A

Status: Launch Successful

Launch date: March 25, 1982, 9:50 a.m. UTC

Rocket: Tsiklon-3

Launch pad: 32/1

Location: Plesetsk Cosmodrome, Russian Federation

...

Latest news about this satellite

There are no fresh news available about this satellite. Check back as we update our databases every day.


Newsletter sign-up

Weekly statistics, charts and insights to help you stay on top of the space industry.